{"data":{"norad_id":49302,"intl_designator":"2021-090Z","name":"ONEWEB-0376","alt_names":[],"object_type":"PAYLOAD","status":"ACTIVE","operator":null,"country":"UK","launch_date":"2021-10-14","launch_site_code":"VOSTO","launch_vehicle":null,"mission":null,"orbit_class":"UNKNOWN","rcs_meters":null,"size_class":null,"mass_kg":null,"dimensions":null,"purposes":["comms"],"wikipedia_slug":null,"has_3d_model":false,"image_url":null,"decayed_at":null,"tle_current":{"epoch":"2026-09-20T00:50:30.734880Z","epoch_age_seconds":66205,"freshness":"FRESH","line1":"1 49302U 21090Z   26263.03507795  .00000056  00000+0  10841-3 0  9992","line2":"2 49302  87.9107 286.0711 0001912  86.7375 273.3977 13.19727211238966","mean_motion":13.19727211,"eccentricity":0.0001912,"inclination_deg":87.9107,"raan_deg":286.0711,"arg_perigee_deg":86.7375,"mean_anomaly_deg":273.3977,"bstar":0.00010841,"rev_number":23896,"period_min":109.11345829634,"perigee_km":1184.3158863774,"apogee_km":1187.2083213948,"semimajor_km":7563.8991038861,"source":"CELESTRAK","updated_at":"2026-09-20T09:00:44.673380Z"}}}